Home > Weather > Maple Ridge > Past weeks

Flag for Canada Past Weather in Maple Ridge, British Columbia, Canada — Yesterday and Last 2 Weeks

Now
82 °F

Warm.


Feels Like: 83 °F
Forecast: 60 / 81 °F
Wind: 6 mph from West

Location: P. Meadows Coastal Station

Current Time: Jul 27, 2016 at 4:13:19 PM

Latest Report: Jul 27, 2016 at 3:00 PM


Visibility: N/A

Pressure: 30.08 "Hg

Humidity: 53%

Dew Point: 63 °F

Location of Maple RidgeLocation

Past Weather in Maple Ridge — Graph

°F

Maple Ridge Temperature Yesterday

Maximum temperature yesterday: 77 °F (at 5:00 PM)
Minimum temperature yesterday: 59 °F (at 6:00 AM)
Average temperature yesterday: 69 °F

High & Low Weather Summary for the Past Weeks

 TemperatureHumidityPressure
High83 °F (Jul 21, 4:00 PM)99% (Jul 17, 5:00 AM)30.26 "Hg (Jul 17, 5:00 AM)
Low54 °F (Jul 23, 6:00 AM)38% (Jul 21, 6:00 PM)29.90 "Hg (Jul 17, 5:00 PM)
Average67 °F71%30.09 "Hg
* Reported Jul 12 3:00 PM — Jul 27 3:00 PM, Maple Ridge, Weather by CustomWeather, © 2016

Note: Actual official high and low records may vary slightly from our data, if they occured in-between our weather recording intervals... More about our weather records

Advertising

Maple Ridge Weather History for the Previous 24 Hours

Scroll right to see more
 ConditionsComfort  
Time TempWeatherWind HumidityBarometerVisibility
3:00 PM
Wed, Jul 27
82 °FWarm.6 mph53%30.08 "HgN/A
2:00 PM81 °FWarm.6 mph56%30.09 "HgN/A
1:00 PM80 °FWarm.3 mph58%30.11 "HgN/A
12:00 PM74 °FMild.2 mph61%30.12 "HgN/A
11:00 AM74 °FMild.2 mph64%30.13 "HgN/A
10:00 AM70 °FMild.2 mph67%30.14 "HgN/A
9:00 AM68 °FMild.2 mph74%30.14 "HgN/A
8:00 AM64 °FMild.1 mph81%30.14 "HgN/A
7:00 AM62 °FMild.No wind83%30.13 "HgN/A
6:00 AM59 °FCool.1 mph89%30.12 "HgN/A
5:00 AM59 °FCool.1 mph89%30.11 "HgN/A
4:00 AM60 °FCool.No wind87%30.10 "HgN/A
3:00 AM60 °FCool.2 mph86%30.10 "HgN/A
2:00 AM62 °FCool.2 mph83%30.10 "HgN/A
1:00 AM63 °FMild.1 mph81%30.10 "HgN/A
12:00 AM65 °FMild.2 mph76%30.10 "HgN/A
11:00 PM
Tue, Jul 26
66 °FMild.No wind75%30.10 "HgN/A
10:00 PM68 °FMild.1 mph69%30.09 "HgN/A
9:00 PM71 °FMild.2 mph62%30.09 "HgN/A
8:00 PM74 °FMild.3 mph55%30.07 "HgN/A
7:00 PM76 °FMild.3 mph57%30.07 "HgN/A
6:00 PM76 °FMild.6 mph55%30.07 "HgN/A
5:00 PM77 °FWarm.5 mph56%30.08 "HgN/A
4:00 PM76 °FMild.7 mph56%30.09 "HgN/A
Weather by CustomWeather, © 2016

See weather overviewHow to use our weather pages